Location: Unspecified
(0.0000°N, 0.0000°E)
Time: 05:58:31
(UTC+00:00)

SR - All Passes

Search period start: 01 September 2015 00:00
Search period end: 11 September 2015 00:00
Orbit: 579 x 881 km, 66.7° (Epoch: 31 August)

Date Brightness Start Highest point End Pass type
(mag) Time Alt. Az. Time Alt. Az. Time Alt. Az.
01 Sep - 07:04:30 10° SSE 07:07:59 26° ESE 07:11:35 10° NE daylight
01 Sep - 08:48:41 10° W 08:49:59 11° WNW 08:50:59 10° NW daylight
01 Sep - 19:28:37 10° NNW 19:34:32 84° ENE 19:40:25 10° SSE visible
02 Sep - 07:57:06 10° SW 08:00:54 32° WNW 08:04:41 10° N daylight
02 Sep - 18:40:14 10° N 18:45:32 36° ENE 18:50:54 10° SE visible
02 Sep - 20:23:28 10° WNW 20:27:39 19° WSW 20:31:28 10° SSW visible
03 Sep - 07:07:44 10° SSW 07:11:57 79° ESE 07:16:12 10° NNE daylight
03 Sep - 17:53:15 10° NE 17:56:23 15° ENE 17:59:55 10° ESE daylight
03 Sep - 19:32:57 10° NW 19:38:33 43° WSW 19:44:03 10° S visible
04 Sep - 06:19:33 10° SSE 06:22:59 25° ESE 06:26:31 10° NE daylight
04 Sep - 08:03:25 10° W 08:04:58 11° WNW 08:06:15 10° NW daylight
04 Sep - 18:43:40 10° NNW 18:49:34 81° ENE 18:55:27 10° SSE visible
05 Sep - 07:12:03 10° SW 07:15:53 33° WNW 07:19:43 10° N daylight
05 Sep - 17:55:18 10° N 18:00:34 35° ENE 18:05:53 10° SE daylight
05 Sep - 19:38:26 10° WNW 19:42:40 19° WSW 19:46:35 10° SSW visible
06 Sep - 06:22:43 10° SSW 06:26:56 76° ESE 06:31:11 10° NNE daylight
06 Sep - 17:08:24 10° NE 17:11:25 15° ENE 17:14:49 10° ESE daylight
06 Sep - 18:47:58 10° NW 18:53:35 45° WSW 18:59:06 10° S visible
07 Sep - 05:34:36 10° SSE 05:37:58 24° ESE 05:41:28 10° NE visible
07 Sep - 07:18:10 10° W 07:19:57 12° WNW 07:21:28 10° NW daylight
07 Sep - 17:58:42 10° NNW 18:04:36 79° ENE 18:10:27 10° SSE daylight
08 Sep - 06:26:59 10° SW 06:30:52 35° WNW 06:34:45 10° N daylight
08 Sep - 17:10:22 10° N 17:15:35 34° ENE 17:20:52 10° SE daylight
08 Sep - 18:53:22 10° WNW 18:57:41 20° WSW 19:01:41 10° SSW visible
09 Sep - 05:37:43 10° SSW 05:41:55 72° ESE 05:46:11 10° NNE daylight
09 Sep - 16:23:34 10° NE 16:26:25 14° ENE 16:29:42 10° E daylight
09 Sep - 18:02:58 10° NW 18:08:37 46° WSW 18:14:08 10° S daylight
10 Sep - 04:49:38 10° SSE 04:52:57 23° ESE 04:56:23 10° ENE visible
10 Sep - 06:32:58 10° W 06:34:56 13° WNW 06:36:39 10° NW daylight
10 Sep - 17:13:43 10° NNW 17:19:38 77° ENE 17:25:28 10° SSE daylight
